Total_Precipitation_Accumulation
0.07 0.08 0.09 0.09 0.05 0.02 0.01 0.00 0.00 0.00 0.00 0.00 0.00 0.00 0.00 0.00 0.00 0.01 0.01 0.01 0.02 0.04 0.08 0.20 0.27 0.30 0.35 0.36 0.33 0.31 0.31 0.32 0.35 0.38 0.35 0.37 0.39 0.42 0.47 0.49 0.52 0.55 0.61 0.67 0.65 0.63 0.65 0.66 0.68
0.07 0.10 0.13 0.11 0.04 0.01 0.01 0.00 0.00 0.00 0.00 0.00 0.00 0.00 0.00 0.00 0.00 0.01 0.02 0.01 0.01 0.02 0.05 0.12 0.24 0.29 0.33 0.34 0.34 0.33 0.32 0.31 0.32 0.38 0.38 0.39 0.43 0.46 0.47 0.52 0.55 0.58 0.64 0.64 0.70 0.70 0.69 0.68 0.66
0.12 0.15 0.15 0.10 0.03 0.01 0.00 0.00 0.00 0.00 0.00 0.00 0.00 0.00 0.00 0.00 0.00 0.01 0.01 0.01 0.01 0.02 0.04 0.11 0.23 0.30 0.34 0.38 0.38 0.36 0.34 0.34 0.36 0.40 0.43 0.46 0.49 0.51 0.48 0.53 0.54 0.57 0.60 0.58 0.63 0.67 0.64 0.61 0.56
0.17 0.22 0.18 0.09 0.01 0.00 0.00 0.00 0.00 0.00 0.00 0.00 0.00 0.00 0.00 0.01 0.00 0.01 0.01 0.01 0.01 0.03 0.05 0.12 0.24 0.31 0.36 0.42 0.44 0.40 0.37 0.39 0.42 0.45 0.48 0.49 0.50 0.52 0.51 0.51 0.47 0.48 0.53 0.54 0.58 0.61 0.59 0.59 0.57
0.23 0.23 0.16 0.07 0.01 0.00 0.00 0.00 0.00 0.00 0.00 0.00 0.00 0.00 0.00 0.01 0.01 0.01 0.02 0.02 0.02 0.04 0.07 0.12 0.25 0.33 0.37 0.43 0.48 0.46 0.43 0.43 0.45 0.49 0.52 0.53 0.54 0.54 0.52 0.52 0.47 0.43 0.42 0.47 0.54 0.58 0.58 0.62 0.58
0.30 0.23 0.12 0.04 0.01 0.00 0.00 0.00 0.00 0.00 0.00 0.00 0.01 0.00 0.01 0.02 0.02 0.02 0.02 0.02 0.02 0.05 0.08 0.14 0.29 0.35 0.38 0.44 0.50 0.50 0.49 0.49 0.50 0.53 0.56 0.58 0.58 0.58 0.53 0.50 0.48 0.46 0.41 0.41 0.45 0.52 0.61 0.66 0.59
0.31 0.20 0.08 0.02 0.01 0.00 0.00 0.00 0.00 0.00 0.00 0.00 0.01 0.01 0.02 0.03 0.03 0.03 0.03 0.04 0.05 0.07 0.09 0.16 0.27 0.35 0.42 0.51 0.56 0.54 0.54 0.54 0.53 0.56 0.58 0.61 0.60 0.60 0.58 0.52 0.47 0.46 0.44 0.43 0.42 0.46 0.55 0.61 0.59
0.32 0.25 0.11 0.03 0.01 0.01 0.00 0.00 0.00 0.01 0.01 0.00 0.00 0.00 0.01 0.03 0.03 0.04 0.05 0.08 0.10 0.11 0.13 0.18 0.26 0.32 0.40 0.49 0.54 0.57 0.59 0.61 0.58 0.56 0.52 0.49 0.53 0.59 0.56 0.48 0.45 0.44 0.45 0.44 0.41 0.41 0.44 0.48 0.50
0.42 0.38 0.16 0.05 0.03 0.01 0.01 0.01 0.01 0.01 0.01 0.01 0.01 0.00 0.01 0.02 0.05 0.07 0.11 0.16 0.17 0.17 0.18 0.22 0.29 0.35 0.43 0.48 0.49 0.57 0.63 0.65 0.63 0.59 0.48 0.47 0.49 0.48 0.47 0.39 0.37 0.42 0.45 0.45 0.45 0.46 0.43 0.39 0.34
0.53 0.40 0.15 0.05 0.04 0.03 0.03 0.03 0.02 0.02 0.02 0.01 0.01 0.01 0.02 0.05 0.08 0.10 0.12 0.16 0.17 0.19 0.22 0.25 0.32 0.41 0.48 0.48 0.51 0.60 0.61 0.60 0.57 0.53 0.48 0.48 0.49 0.46 0.42 0.38 0.36 0.39 0.42 0.45 0.48 0.48 0.45 0.40 0.33
0.49 0.36 0.16 0.07 0.06 0.08 0.06 0.04 0.03 0.04 0.04 0.02 0.02 0.02 0.04 0.09 0.12 0.13 0.13 0.16 0.17 0.20 0.24 0.25 0.35 0.45 0.51 0.54 0.51 0.55 0.59 0.60 0.59 0.56 0.52 0.52 0.55 0.53 0.45 0.42 0.37 0.39 0.38 0.42 0.44 0.45 0.43 0.43 0.44
0.43 0.30 0.19 0.12 0.09 0.11 0.11 0.07 0.06 0.05 0.04 0.02 0.03 0.03 0.05 0.09 0.11 0.12 0.15 0.21 0.26 0.27 0.28 0.31 0.36 0.47 0.55 0.57 0.54 0.53 0.51 0.52 0.53 0.54 0.54 0.54 0.53 0.47 0.40 0.38 0.33 0.33 0.33 0.36 0.40 0.40 0.39 0.41 0.43
0.39 0.27 0.19 0.16 0.14 0.13 0.15 0.12 0.09 0.06 0.03 0.03 0.05 0.08 0.10 0.10 0.12 0.16 0.21 0.27 0.30 0.32 0.34 0.35 0.39 0.46 0.57 0.65 0.61 0.57 0.53 0.47 0.49 0.53 0.55 0.50 0.47 0.45 0.42 0.39 0.38 0.35 0.32 0.33 0.34 0.34 0.35 0.37 0.41
0.36 0.30 0.23 0.20 0.20 0.18 0.19 0.16 0.11 0.06 0.04 0.06 0.10 0.12 0.14 0.15 0.18 0.21 0.23 0.26 0.30 0.34 0.38 0.43 0.45 0.50 0.58 0.64 0.63 0.59 0.59 0.58 0.58 0.53 0.53 0.54 0.52 0.51 0.49 0.45 0.44 0.42 0.37 0.35 0.36 0.36 0.37 0.39 0.39
0.35 0.40 0.36 0.27 0.24 0.25 0.27 0.27 0.15 0.07 0.06 0.09 0.12 0.12 0.15 0.16 0.20 0.23 0.24 0.27 0.29 0.36 0.44 0.49 0.54 0.56 0.60 0.63 0.67 0.67 0.63 0.64 0.63 0.55 0.51 0.52 0.55 0.57 0.52 0.49 0.47 0.48 0.50 0.49 0.45 0.42 0.43 0.41 0.39
0.54 0.61 0.53 0.32 0.24 0.27 0.38 0.35 0.14 0.09 0.09 0.10 0.11 0.12 0.12 0.13 0.17 0.23 0.27 0.33 0.37 0.44 0.50 0.55 0.60 0.59 0.63 0.67 0.72 0.75 0.75 0.72 0.65 0.60 0.58 0.53 0.53 0.58 0.61 0.56 0.52 0.53 0.58 0.60 0.57 0.50 0.49 0.45 0.42
0.78 0.67 0.42 0.26 0.21 0.28 0.37 0.30 0.15 0.10 0.12 0.12 0.10 0.11 0.12 0.13 0.14 0.19 0.26 0.32 0.41 0.46 0.52 0.58 0.60 0.62 0.64 0.68 0.78 0.83 0.84 0.82 0.77 0.69 0.61 0.58 0.60 0.59 0.62 0.61 0.59 0.63 0.64 0.61 0.62 0.58 0.60 0.56 0.49
0.58 0.40 0.30 0.23 0.21 0.25 0.27 0.20 0.15 0.14 0.14 0.14 0.12 0.12 0.13 0.13 0.12 0.16 0.23 0.32 0.44 0.52 0.57 0.64 0.67 0.71 0.75 0.81 0.87 0.96 0.96 0.90 0.87 0.79 0.69 0.59 0.58 0.64 0.68 0.67 0.66 0.69 0.72 0.69 0.66 0.63 0.61 0.61 0.62
0.38 0.34 0.29 0.22 0.19 0.25 0.23 0.17 0.15 0.17 0.16 0.14 0.13 0.13 0.15 0.15 0.16 0.17 0.23 0.30 0.38 0.48 0.57 0.67 0.71 0.77 0.80 0.81 0.81 0.85 0.86 0.86 0.87 0.83 0.78 0.73 0.67 0.65 0.72 0.73 0.70 0.70 0.68 0.66 0.63 0.65 0.63 0.58 0.60
0.50 0.49 0.35 0.25 0.20 0.25 0.25 0.20 0.17 0.19 0.18 0.15 0.13 0.13 0.14 0.16 0.18 0.20 0.24 0.29 0.33 0.40 0.51 0.67 0.69 0.76 0.78 0.74 0.73 0.77 0.86 0.89 0.91 0.92 0.90 0.81 0.74 0.68 0.71 0.77 0.76 0.70 0.68 0.65 0.60 0.60 0.62 0.57 0.56
0.59 0.45 0.33 0.30 0.31 0.32 0.32 0.27 0.15 0.16 0.15 0.12 0.11 0.11 0.12 0.15 0.17 0.20 0.23 0.29 0.31 0.35 0.43 0.59 0.65 0.70 0.79 0.84 0.92 0.95 1.04 1.07 1.02 0.96 0.93 0.82 0.73 0.67 0.67 0.76 0.84 0.80 0.72 0.66 0.63 0.62 0.61 0.59 0.55
0.61 0.32 0.30 0.38 0.57 0.65 0.48 0.49 0.18 0.15 0.14 0.13 0.11 0.12 0.11 0.13 0.16 0.19 0.21 0.29 0.34 0.32 0.39 0.49 0.59 0.64 0.78 0.88 0.92 0.86 0.83 0.87 0.81 0.81 0.83 0.79 0.74 0.70 0.67 0.74 0.83 0.87 0.78 0.66 0.63 0.64 0.62 0.63 0.63
0.47 0.32 0.39 0.53 0.70 0.78 0.53 0.53 0.24 0.13 0.18 0.17 0.14 0.12 0.12 0.11 0.13 0.17 0.21 0.27 0.36 0.37 0.42 0.49 0.52 0.60 0.71 0.82 0.85 0.88 0.82 0.78 0.82 0.87 0.88 0.91 0.80 0.76 0.72 0.74 0.78 0.82 0.77 0.70 0.64 0.63 0.65 0.64 0.65
0.48 0.58 0.71 0.85 1.22 1.33 0.47 0.39 0.25 0.16 0.18 0.16 0.14 0.13 0.13 0.12 0.13 0.17 0.22 0.29 0.38 0.47 0.49 0.54 0.55 0.58 0.66 0.77 0.85 0.88 0.85 0.83 0.91 0.89 0.92 0.98 0.98 0.88 0.81 0.81 0.76 0.76 0.72 0.68 0.65 0.64 0.65 0.63 0.62
0.84 1.27 1.86 1.92 1.91 1.09 0.23 0.21 0.22 0.13 0.09 0.10 0.12 0.14 0.15 0.13 0.14 0.17 0.22 0.31 0.42 0.50 0.52 0.57 0.62 0.59 0.62 0.72 0.77 0.81 0.87 0.92 0.93 0.96 0.90 0.91 0.95 0.89 0.81 0.80 0.76 0.74 0.72 0.68 0.66 0.67 0.66 0.66 0.67
0.86 1.12 1.50 1.33 0.82 0.36 0.17 0.19 0.16 0.10 0.07 0.05 0.06 0.09 0.12 0.14 0.15 0.18 0.21 0.29 0.40 0.49 0.53 0.57 0.62 0.63 0.65 0.68 0.71 0.76 0.83 0.92 0.96 0.99 1.01 0.97 0.92 0.88 0.82 0.83 0.81 0.77 0.73 0.74 0.71 0.69 0.69 0.69 0.69
0.75 0.83 0.76 1.00 0.70 0.40 0.27 0.19 0.13 0.08 0.07 0.05 0.04 0.06 0.09 0.10 0.13 0.19 0.19 0.25 0.37 0.45 0.48 0.48 0.57 0.65 0.66 0.69 0.71 0.74 0.79 0.86 0.87 0.90 0.96 1.01 1.02 0.98 0.96 0.94 0.92 0.87 0.85 0.87 0.88 0.81 0.75 0.74 0.72
0.63 0.75 0.95 1.41 1.19 0.60 0.29 0.19 0.19 0.15 0.11 0.08 0.07 0.08 0.11 0.12 0.14 0.19 0.20 0.21 0.31 0.41 0.42 0.41 0.49 0.58 0.59 0.63 0.71 0.72 0.75 0.82 0.86 0.88 0.90 0.90 0.96 1.01 1.03 1.02 0.96 0.92 0.91 0.95 1.02 0.98 0.86 0.83 0.79
0.73 0.96 1.22 1.31 0.97 0.69 0.42 0.31 0.25 0.21 0.18 0.15 0.13 0.12 0.14 0.16 0.16 0.22 0.23 0.24 0.28 0.36 0.38 0.39 0.42 0.54 0.59 0.59 0.64 0.70 0.74 0.82 0.92 0.95 0.92 0.88 0.90 0.95 0.99 1.00 0.97 0.94 0.94 0.96 0.99 0.99 1.00 0.98 0.92
0.70 0.83 0.99 1.31 1.01 0.58 0.48 0.33 0.22 0.19 0.18 0.17 0.18 0.16 0.13 0.15 0.15 0.18 0.22 0.26 0.32 0.38 0.42 0.39 0.40 0.48 0.61 0.60 0.57 0.62 0.71 0.80 0.90 0.94 0.93 0.94 0.89 0.88 0.95 0.99 1.00 0.95 0.94 1.00 1.06 1.03 1.01 1.03 1.02